EW8275 Weather Reports


Display with metric or nautical units.
time (UTC)temp
F
wind
direction
speed
MPH
gust
MPH
rain 1hr
in
rain 24hr
in
rain mn
in
humidity
%
barometer
mb
20260831214614 64 299 4.0 12.0 0.00 0.24 0.05 87 1015.6
20260831214137 64 226 3.0 11.0 0.00 0.24 0.05 88 1015.3
20260831213620 64 230 1.0 4.0 0.00 0.24 0.05 88 1015.0
20260831213125 64 244 0.0 5.0 0.00 0.24 0.05 87 1015.0
20260831212630 64 219 3.0 5.0 0.00 0.24 0.05 87 1014.9
20260831212126 64 221 2.0 6.0 0.00 0.24 0.05 87 1014.9
20260831211615 64 224 3.0 7.0 0.00 0.24 0.05 87 1014.8
20260831211144 64 206 3.0 7.0 0.00 0.24 0.05 86 1014.8
20260831210633 64 227 1.0 6.0 0.00 0.24 0.05 85 1014.8
20260831210125 64 228 2.0 6.0 0.00 0.24 0.05 85 1014.7
20260831205608 64 202 1.0 5.0 0.00 0.24 0.05 84 1014.6
20260831205131 65 208 3.0 8.0 0.00 0.24 0.05 83 1014.6
20260831204615 65 209 4.0 8.0 0.00 0.24 0.05 83 1014.6
20260831204110 65 234 4.0 7.0 0.00 0.24 0.05 82 1014.5
20260831203634 65 218 3.0 6.0 0.00 0.24 0.05 82 1014.5
20260831203128 65 195 2.0 7.0 0.00 0.24 0.05 82 1014.5
20260831202632 65 234 4.0 7.0 0.00 0.24 0.05 83 1014.5
20260831202133 64 172 2.0 6.0 0.00 0.24 0.05 83 1014.5
20260831201609 64 238 3.0 6.0 0.00 0.24 0.05 83 1014.5
20260831201115 64 182 2.0 7.0 0.00 0.24 0.05 82 1014.4
20260831200616 64 200 2.0 7.0 0.00 0.24 0.05 82 1014.3
20260831200113 64 199 3.0 6.0 0.00 0.24 0.05 82 1014.3
20260831195616 64 206 3.0 6.0 0.00 0.24 0.05 82 1014.3
20260831195106 64 224 2.0 4.0 0.00 0.24 0.05 82 1014.2
20260831194617 63 246 1.0 3.0 0.00 0.24 0.05 82 1014.2
20260831194107 64 139 2.0 7.0 0.00 0.24 0.05 81 1014.2
20260831193641 64 205 2.0 7.0 0.00 0.24 0.05 81 1014.1
20260831193122 64 244 3.0 7.0 0.00 0.24 0.05 81 1014.1
20260831192620 64 221 4.0 7.0 0.00 0.24 0.05 81 1014.0
20260831192135 64 240 3.0 6.0 0.00 0.24 0.05 81 1014.0
20260831191614 64 204 2.0 6.0 0.00 0.24 0.05 81 1013.9
20260831191114 64 263 2.0 4.0 0.00 0.24 0.05 81 1013.9
20260831190627 64 224 1.0 4.0 0.00 0.24 0.05 81 1013.9
20260831190129 64 206 2.0 4.0 0.00 0.24 0.05 80 1013.8
20260831185614 64 230 1.0 5.0 0.00 0.24 0.05 80 1013.8
20260831185143 64 237 1.0 5.0 0.00 0.24 0.05 80 1013.7
20260831184610 64 211 1.0 7.0 0.00 0.24 0.05 80 1013.6
20260831184138 65 217 3.0 7.0 0.00 0.24 0.05 79 1013.5
20260831183640 65 216 2.0 4.0 0.00 0.24 0.05 79 1013.3
20260831183108 65 187 1.0 4.0 0.00 0.24 0.05 79 1013.2
20260831182616 65 205 2.0 7.0 0.00 0.24 0.05 78 1013.2
20260831182106 66 252 2.0 7.0 0.00 0.24 0.05 77 1013.1
20260831181628 66 219 2.0 7.0 0.00 0.24 0.05 78 1013.0
20260831181133 66 290 1.0 7.0 0.00 0.24 0.05 78 1013.0
20260831180625 66 273 2.0 7.0 0.00 0.24 0.05 77 1012.9
20260831180135 66 226 2.0 8.0 0.00 0.24 0.05 77 1012.9
20260831175642 66 243 2.0 9.0 0.00 0.24 0.05 77 1012.8
20260831175117 66 314 3.0 6.0 0.00 0.24 0.05 77 1012.7
20260831174628 66 229 2.0 9.0 0.00 0.24 0.05 77 1012.7
20260831174107 66 181 3.0 9.0 0.00 0.24 0.05 76 1012.6
20260831173626 67 219 3.0 9.0 0.00 0.24 0.05 76 1012.5
20260831173131 67 211 3.0 11.0 0.00 0.24 0.05 75 1012.5
20260831172612 67 171 3.0 13.0 0.00 0.24 0.05 74 1012.4
20260831172112 67 252 4.0 12.0 0.00 0.24 0.05 74 1012.3
20260831171638 67 208 2.0 9.0 0.00 0.24 0.05 75 1012.3
20260831171131 67 246 5.0 9.0 0.00 0.24 0.05 75 1012.2
20260831170616 67 332 3.0 8.0 0.00 0.24 0.05 76 1012.1
20260831170130 67 285 3.0 8.0 0.00 0.24 0.05 76 1012.1
20260831165621 67 253 3.0 16.0 0.00 0.24 0.05 74 1012.0
20260831165111 67 306 6.0 16.0 0.00 0.24 0.05 73 1012.0
20260831164637 67 244 4.0 12.0 0.00 0.24 0.05 74 1011.9
20260831164113 67 5 5.0 13.0 0.00 0.24 0.05 73 1011.9
20260831163645 68 293 4.0 13.0 0.00 0.24 0.05 74 1011.8
20260831163113 68 275 3.0 11.0 0.00 0.24 0.05 75 1011.8
20260831162609 68 251 4.0 13.0 0.00 0.24 0.05 74 1011.8
20260831162117 68 153 5.0 13.0 0.00 0.24 0.05 75 1011.7
20260831161609 67 223 5.0 11.0 0.00 0.24 0.05 74 1011.6
20260831161116 68 198 4.0 10.0 0.00 0.24 0.05 73 1011.6
20260831160620 68 206 4.0 10.0 0.00 0.24 0.05 75 1011.6
20260831160105 68 267 4.0 9.0 0.00 0.24 0.05 75 1011.5
20260831155616 67 286 3.0 12.0 0.00 0.24 0.05 75 1011.4
20260831155133 67 244 3.0 18.0 0.00 0.24 0.05 75 1011.4
20260831154611 67 278 5.0 18.0 0.00 0.24 0.05 74 1011.4
20260831154118 67 167 4.0 12.0 0.00 0.24 0.05 74 1011.3
20260831153625 67 283 4.0 12.0 0.00 0.24 0.05 76 1011.3
20260831153119 67 302 5.0 14.0 0.00 0.24 0.05 73 1011.3
20260831152630 68 269 6.0 15.0 0.00 0.24 0.05 73 1011.3
20260831152115 68 291 6.0 15.0 0.00 0.24 0.05 73 1011.2
20260831151633 68 213 3.0 8.0 0.00 0.24 0.05 74 1011.1
20260831151111 67 286 3.0 13.0 0.00 0.24 0.05 74 1011.1
20260831150615 67 218 4.0 13.0 0.00 0.24 0.05 73 1011.1
20260831150130 67 223 5.0 11.0 0.00 0.24 0.05 74 1011.0
20260831145645 66 254 3.0 9.0 0.00 0.24 0.05 77 1010.9
20260831145137 66 238 3.0 12.0 0.00 0.24 0.05 77 1010.9
20260831144611 66 251 4.0 12.0 0.00 0.24 0.05 78 1010.9
20260831144106 66 313 3.0 8.0 0.00 0.24 0.05 78 1010.8
20260831143636 66 265 3.0 8.0 0.00 0.24 0.05 78 1010.7
20260831143140 66 301 3.0 11.0 0.00 0.24 0.05 78 1010.6
20260831142643 66 300 5.0 11.0 0.00 0.24 0.05 77 1010.5
20260831142128 66 205 3.0 15.0 0.00 0.24 0.05 78 1010.4
20260831141625 65 265 5.0 15.0 0.00 0.24 0.05 78 1010.4
20260831141117 66 285 5.0 11.0 0.00 0.24 0.05 76 1010.4
20260831140615 67 207 3.0 11.0 0.00 0.24 0.05 75 1010.2
20260831140134 67 224 4.0 11.0 0.00 0.24 0.05 73 1010.1
20260831135618 67 201 4.0 14.0 0.00 0.24 0.05 72 1010.0
20260831135124 68 227 4.0 14.0 0.00 0.24 0.05 71 1009.9
20260831134641 68 247 3.0 9.0 0.00 0.24 0.05 73 1009.8
20260831134117 68 270 3.0 10.0 0.00 0.24 0.05 71 1009.8
20260831133617 68 148 3.0 16.0 0.00 0.24 0.05 71 1009.8
20260831133113 69 254 4.0 16.0 0.00 0.24 0.05 69 1009.6
20260831132621 69 307 4.0 15.0 0.00 0.24 0.05 67 1009.6
20260831132123 70 264 4.0 16.0 0.00 0.24 0.05 65 1009.6
20260831131627 71 292 4.0 16.0 0.00 0.24 0.05 67 1009.4
20260831131128 70 296 4.0 11.0 0.00 0.24 0.05 67 1009.4
20260831130620 69 110 4.0 12.0 0.00 0.24 0.05 72 1009.3
20260831130114 70 196 5.0 12.0 0.04 0.24 0.05 67 1009.3
20260831125626 71 269 5.0 13.0 0.04 0.31 0.05 69 1009.1
20260831125111 70 160 5.0 13.0 0.04 0.31 0.05 70 1009.1
20260831124621 68 294 4.0 12.0 0.04 0.31 0.05 72 1009.0
20260831124121 68 162 4.0 10.0 0.04 0.31 0.05 70 1008.9
20260831123623 70 265 4.0 12.0 0.04 0.31 0.05 72 1009.0
20260831123106 70 191 6.0 12.0 0.04 0.31 0.05 75 1008.7
20260831122618 69 219 5.0 15.0 0.04 0.31 0.05 76 1008.6
20260831122110 69 252 4.0 11.0 0.04 0.31 0.05 81 1008.7
20260831121614 67 45 2.0 11.0 0.04 0.31 0.05 85 1008.6
20260831121122 66 238 5.0 11.0 0.04 0.31 0.05 84 1008.6
20260831120650 67 240 2.0 7.0 0.04 0.31 0.05 83 1008.6
20260831120146 66 265 3.0 7.0 0.00 0.28 0.04 84 1008.6
20260831115620 65 252 3.0 7.0 0.00 0.55 0.04 83 1008.7
20260831115145 64 290 2.0 10.0 0.00 0.55 0.04 83 1008.6
20260831114643 65 325 5.0 10.0 0.00 0.55 0.04 82 1008.6
20260831114112 65 198 5.0 11.0 0.00 0.55 0.04 82 1008.5
20260831113621 66 107 4.0 11.0 0.00 0.55 0.04 81 1008.5
20260831113108 67 306 4.0 11.0 0.00 0.55 0.04 83 1008.3
20260831112619 66 227 3.0 8.0 0.00 0.55 0.04 85 1008.3
20260831112127 65 182 4.0 12.0 0.00 0.55 0.04 87 1008.1
20260831111624 64 184 3.0 12.0 0.00 0.55 0.04 82 1008.1
20260831111133 65 294 4.0 15.0 0.00 0.55 0.04 78 1008.1
20260831110621 66 217 4.0 15.0 0.00 0.55 0.04 76 1008.0
20260831110119 66 207 4.0 14.0 0.00 0.55 0.04 74 1008.0
20260831105619 67 15 7.0 14.0 0.00 0.71 0.04 75 1007.8
20260831105119 66 259 6.0 18.0 0.00 0.71 0.04 73 1007.7
20260831104618 67 250 6.0 18.0 0.00 0.71 0.04 73 1007.6
20260831104134 68 301 3.0 21.0 0.00 0.71 0.04 75 1007.5
20260831103618 67 192 7.0 22.0 0.00 0.71 0.04 75 1007.4
20260831103133 67 188 10.0 22.0 0.00 0.71 0.04 75 1007.3
20260831102620 68 169 9.0 22.0 0.00 0.71 0.04 72 1007.2
20260831102122 68 217 11.0 22.0 0.00 0.71 0.04 72 1007.5
20260831101612 67 273 8.0 19.0 0.00 0.71 0.04 74 1007.3
20260831101130 66 219 7.0 15.0 0.00 0.71 0.04 77 1007.2
20260831100626 66 272 5.0 19.0 0.00 0.71 0.04 76 1007.3
20260831100116 67 184 4.0 25.0 0.00 0.71 0.04 75 1007.3
20260831095625 67 233 7.0 25.0 0.00 0.94 0.04 75 1007.3
20260831095113 67 191 7.0 19.0 0.00 0.94 0.04 77 1007.3
20260831094622 66 220 5.0 17.0 0.00 0.94 0.04 79 1007.2
20260831094109 65 192 7.0 17.0 0.00 0.94 0.04 78 1007.2
20260831093620 65 180 9.0 17.0 0.00 0.94 0.04 77 1007.0
20260831093115 65 152 5.0 17.0 0.00 0.94 0.04 78 1007.1
20260831092636 66 207 9.0 17.0 0.00 0.94 0.04 76 1007.1
20260831092117 66 225 7.0 15.0 0.00 0.94 0.04 79 1007.1
20260831091608 66 226 8.0 18.0 0.00 0.94 0.04 79 1007.1
20260831091110 65 245 7.0 18.0 0.00 0.94 0.04 80 1007.0
20260831090614 65 199 8.0 22.0 0.00 0.94 0.04 80 1007.0
20260831090120 65 192 11.0 22.0 0.00 0.94 0.04 79 1007.0
20260831085614 66 269 4.0 12.0 0.00 0.94 0.04 81 1006.9
20260831085137 65 249 6.0 21.0 0.00 0.94 0.04 82 1006.9
20260831084621 65 227 7.0 21.0 0.00 0.94 0.04 82 1006.9
20260831084148 64 223 10.0 21.0 0.00 0.94 0.04 82 1006.9
20260831083617 64 193 7.0 15.0 0.00 0.94 0.04 84 1006.9
20260831083129 64 234 6.0 18.0 0.00 0.94 0.04 83 1006.8
20260831082613 64 225 8.0 19.0 0.00 0.94 0.04 84 1006.7
20260831082112 64 215 11.0 20.0 0.00 0.94 0.04 84 1006.6
20260831081622 64 213 7.0 16.0 0.00 0.94 0.04 85 1006.6
20260831081128 64 164 10.0 17.0 0.00 0.94 0.04 85 1006.5
20260831080639 63 165 8.0 20.0 0.00 0.94 0.04 86 1006.5
20260831080116 64 237 7.0 20.0 0.00 0.94 0.04 86 1006.4
20260831075631 64 238 5.0 18.0 0.00 0.98 0.04 87 1006.3
20260831075106 63 214 6.0 18.0 0.00 0.98 0.04 88 1006.3
20260831074645 63 215 5.0 18.0 0.00 0.98 0.04 89 1006.3
20260831074110 63 125 7.0 18.0 0.04 0.98 0.04 90 1006.5
20260831073642 62 204 6.0 13.0 0.04 0.98 0.04 90 1006.3
20260831073134 62 264 6.0 15.0 0.04 0.98 0.04 90 1006.4
20260831072613 62 199 6.0 15.0 0.04 0.98 0.04 91 1006.4
20260831072125 62 223 5.0 14.0 0.04 0.98 0.04 91 1006.5
20260831071613 62 192 4.0 12.0 0.04 0.98 0.04 92 1006.5
20260831071119 62 200 4.0 9.0 0.04 0.98 0.04 92 1006.5
20260831070655 62 154 4.0 9.0 0.04 0.98 0.04 92 1006.6
20260831070147 61 198 4.0 11.0 0.04 0.98 0.04 92 1006.5
20260831065621 61 209 5.0 12.0 0.04 1.14 0.04 92 1006.7
20260831065101 61 219 4.0 10.0 0.12 1.14 0.04 92 1006.6
20260831064635 61 299 4.0 10.0 0.20 1.14 0.04 92 1006.8
20260831064119 61 232 5.0 13.0 0.16 1.10 0.03 92 1006.8
20260831063630 61 205 4.0 8.0 0.16 1.10 0.03 92 1007.0
20260831063118 61 209 4.0 8.0 0.16 1.10 0.03 92 1007.1
20260831062632 61 188 4.0 14.0 0.16 1.10 0.03 92 1007.3
20260831062118 61 161 7.0 14.0 0.16 1.10 0.03 91 1007.4
20260831061638 61 207 5.0 9.0 0.16 1.10 0.03 91 1007.3
20260831061117 61 199 4.0 12.0 0.16 1.10 0.03 91 1007.3
20260831060614 62 198 5.0 12.0 0.16 1.10 0.03 90 1007.2
20260831060107 62 164 6.0 10.0 0.16 1.10 0.03 90 1007.0
20260831055622 62 153 3.0 11.0 0.16 1.10 0.03 89 1006.9
20260831055127 63 232 6.0 9.0 0.08 1.02 0.02 89 1006.8
20260831054628 63 250 5.0 13.0 0.00 0.94 0.00 88 1006.7
20260831054138 62 177 6.0 13.0 0.00 0.94 0.00 89 1006.7
20260831053617 62 167 5.0 11.0 0.00 0.94 0.00 89 1006.5
20260831053115 62 206 6.0 11.0 0.00 0.94 0.00 89 1006.5
20260831052622 62 205 4.0 8.0 0.00 0.94 0.00 90 1006.6
20260831052117 62 223 3.0 7.0 0.00 0.94 0.00 90 1006.6
20260831051631 62 217 3.0 9.0 0.00 0.94 0.00 90 1006.6
20260831051131 62 187 5.0 12.0 0.00 0.94 0.00 89 1006.7
20260831050614 62 202 6.0 12.0 0.00 0.94 0.00 89 1006.7
20260831050120 62 286 6.0 12.0 0.00 0.94 0.00 89 1006.6
20260831045621 62 235 6.0 14.0 0.00 1.06 0.00 89 1006.7
20260831045114 62 190 8.0 14.0 0.00 1.06 0.00 89 1006.7
20260831044604 62 245 6.0 12.0 0.00 1.06 0.00 89 1006.7
20260831044127 62 199 5.0 11.0 0.00 1.06 0.00 89 1006.7
20260831043650 62 188 4.0 11.0 0.00 1.06 0.00 89 1006.9
20260831043113 62 223 5.0 11.0 0.00 1.06 0.00 89 1006.8
20260831042633 62 191 5.0 11.0 0.00 1.06 0.00 89 1006.8
20260831042128 62 182 6.0 11.0 0.00 1.06 0.00 89 1006.7
20260831041608 62 223 5.0 10.0 0.00 1.06 0.00 89 1006.7
20260831041201 62 219 4.0 8.0 0.00 1.06 0.00 89 1006.7
20260831040613 62 204 3.0 9.0 0.00 1.06 0.00 89 1006.7
20260831040108 62 188 4.0 10.0 0.00 1.06 0.00 89 1006.6
20260831035613 62 196 5.0 10.0 0.00 1.06 0.00 89 1006.6
20260831035113 62 201 5.0 9.0 0.00 1.06 0.00 89 1006.7
20260831034636 62 218 4.0 8.0 0.00 1.06 0.00 89 1006.7
20260831034108 62 134 3.0 8.0 0.00 1.06 0.00 89 1006.7
20260831033617 62 192 2.0 9.0 0.00 1.06 0.00 89 1006.8
20260831033107 62 217 4.0 11.0 0.00 1.06 0.00 89 1006.8
20260831032643 62 218 5.0 11.0 0.00 1.06 0.00 89 1006.8
20260831032139 63 166 3.0 8.0 0.00 1.06 0.00 89 1006.8
20260831031616 63 183 4.0 10.0 0.00 1.06 0.00 89 1006.8
20260831031102 62 228 4.0 10.0 0.00 1.06 0.00 89 1007.0
20260831030621 62 216 5.0 10.0 0.00 1.06 0.00 89 1007.0
20260831030124 62 154 4.0 7.0 0.00 1.06 0.00 90 1007.1
20260831025620 62 210 3.0 8.0 0.00 1.06 0.00 90 1007.1
20260831025125 62 171 3.0 8.0 0.00 1.06 0.00 90 1007.3
20260831024625 62 215 4.0 7.0 0.00 1.06 0.00 90 1007.3
20260831024127 62 209 2.0 6.0 0.00 1.06 0.00 90 1007.3
20260831023626 62 226 2.0 6.0 0.00 1.06 0.00 90 1007.3
20260831023144 62 190 3.0 7.0 0.00 1.06 0.00 90 1007.3
20260831022612 62 206 2.0 6.0 0.00 1.06 0.00 90 1007.1
20260831022119 62 224 4.0 7.0 0.00 1.06 0.00 90 1007.2
20260831021610 62 215 4.0 7.0 0.00 1.06 0.00 90 1007.2
20260831021112 62 223 2.0 5.0 0.00 1.06 0.00 90 1007.2
20260831020624 62 214 2.0 4.0 0.00 1.06 0.00 90 1007.1
20260831020113 62 219 2.0 6.0 0.00 1.06 0.00 90 1007.1
20260831015641 62 217 3.0 6.0 0.00 1.06 0.00 90 1007.1
20260831015138 62 214 2.0 6.0 0.00 1.06 0.00 90 1007.1
20260831014638 62 218 3.0 7.0 0.00 1.06 0.00 90 1007.1
20260831014147 62 188 4.0 7.0 0.00 1.06 0.00 90 1007.1
20260831013617 62 205 3.0 9.0 0.00 1.06 0.00 90 1007.1
20260831013120 62 209 4.0 9.0 0.00 1.06 0.00 91 1007.2
20260831012617 61 202 4.0 6.0 0.00 1.06 0.00 91 1007.3
20260831012139 61 185 3.0 7.0 0.00 1.06 0.00 91 1007.4
20260831011619 61 201 3.0 7.0 0.00 1.06 0.00 91 1007.4
20260831011132 61 215 3.0 6.0 0.00 1.06 0.00 91 1007.4
20260831010616 61 211 2.0 5.0 0.00 1.06 0.00 91 1007.3
20260831010114 61 184 2.0 4.0 0.00 1.06 0.00 91 1007.3
20260831005613 61 216 2.0 6.0 0.00 1.06 0.00 91 1007.4
20260831005107 61 204 3.0 6.0 0.00 1.06 0.00 90 1007.5
20260831004646 62 184 2.0 4.0 0.00 1.06 0.00 90 1007.4
20260831004134 62 146 2.0 4.0 0.00 1.06 0.00 89 1007.5
20260831003622 62 182 2.0 5.0 0.00 1.06 0.00 89 1007.5
20260831003111 62 172 3.0 5.0 0.00 1.06 0.00 89 1007.5
20260831002628 62 100 2.0 5.0 0.00 1.06 0.00 89 1007.5
20260831002117 62 215 2.0 5.0 0.00 1.06 0.00 89 1007.5
20260831001631 62 169 3.0 5.0 0.00 1.06 0.00 88 1007.6
20260831001109 62 213 2.0 5.0 0.00 1.06 0.00 88 1007.7
20260831000610 63 206 2.0 5.0 0.00 1.06 0.00 88 1007.7
20260831000147 63 184 2.0 7.0 0.00 1.06 0.00 88 1007.7
20260830235610 63 223 3.0 7.0 0.00 1.10 0.00 88 1007.8
20260830235125 63 200 3.0 8.0 0.00 1.10 0.00 87 1007.9
20260830234630 63 140 2.0 8.0 0.00 1.10 0.00 87 1007.9
20260830234108 63 209 3.0 10.0 0.00 1.10 0.00 87 1008.1
20260830233624 63 221 5.0 10.0 0.00 1.10 0.00 88 1008.1
20260830233135 63 191 3.0 9.0 0.00 1.10 0.00 89 1008.1
20260830232638 64 175 4.0 7.0 0.00 1.10 0.00 90 1008.2
20260830232112 63 219 3.0 7.0 0.00 1.10 0.00 90 1008.2
20260830231609 63 219 4.0 7.0 0.00 1.10 0.00 92 1008.1
20260830231149 63 182 4.0 7.0 0.00 1.10 0.00 92 1008.1
20260830230621 63 140 3.0 7.0 0.00 1.10 0.00 93 1008.1
20260830230105 63 219 3.0 7.0 0.00 1.10 0.00 93 1008.1
20260830225625 62 217 3.0 7.0 0.00 1.14 0.00 94 1008.1
20260830225108 62 148 2.0 4.0 0.00 1.14 0.00 94 1008.1
20260830224621 62 212 1.0 3.0 0.00 1.14 0.00 94 1008.1
20260830224118 62 208 1.0 2.0 0.00 1.14 0.00 94 1008.2
20260830223605 61 208 0.0 1.0 0.00 1.14 0.00 94 1008.1
20260830223114 61 208 0.0 1.0 0.00 1.14 0.00 94 1008.0
20260830222635 62 208 0.0 0.0 0.00 1.14 0.00 94 1008.1
20260830222132 61 208 0.0 0.0 0.00 1.14 0.00 94 1008.3
20260830221636 61 208 0.0 0.0 0.00 1.14 0.00 94 1008.4
20260830221109 61 208 0.0 0.0 0.00 1.14 0.00 93 1008.4
20260830220617 61 208 0.0 0.0 0.00 1.14 0.00 93 1008.5
20260830220106 61 208 0.0 0.0 0.00 1.14 0.00 93 1008.5
20260830215617 61 208 0.0 0.0 0.00 1.14 0.23 92 1008.4
20260830215107 62 208 0.0 0.0 0.00 1.14 0.23 91 1008.4